sat.trackr.live / text

‹ back to catalog

STAR ONE D1

NORAD 41904 · 2016-082B

PAYLOAD ACTIVE UNKNOWN

§ Identity

Operator
Country
BRAZ
Launch date
2016-12-21
Launch site
FRGUI
Launch vehicle
Mass (kg)
RCS (m²)
0.00

Purposes: comms

External: N2YO · Heavens-Above · Gunter

§ Orbital elements

Epoch: 2026-09-20T04:35:38.726016Z

Period
1,436.10 min
Inclination
0.0231°
Eccentricity
0.0002390
Mean motion
1.00271512 rev/d
Perigee alt
35,776.6 km
Apogee alt
35,796.7 km
Semi-major
42,164.8 km
B*
0.0000e+0
RAAN
107.7350°
Arg perigee
66.9732°
Mean anomaly
169.3143°
Rev number
3,572

§ Raw data

STAR ONE D11 41904U 16082B   26263.19142044 -.00000215  00000+0  00000+0 0  99962 41904   0.0231 107.7350 0002390  66.9732 169.3143  1.00271512 35729

JSON: /api/v1/satellites/41904 · /tle

For live sub-satellite position, see the globe view (requires WebGL).

§ Visibility from observer

Set your observer location to see the next 7 days of passes ≥ 10°. The values pass through the URL so the page stays shareable.

No JS? Fill the form by hand. The geolocation button needs JavaScript.